When you browse on this site, cookies collect data to enhance your experience and personalize the content and advertising you see.
Visit our Privacy Policy to learn more. By continuing to use the site, you agree to this use of cookies and data.
  • In Spain
  • List of Countries
  • For 7 days
  • Water Temperature
  • Weather Map
  • Weather Widgets
  • user-avatar
    Login

    Hourly Weather Machali

    Today, 26 January, Sunday

    Time Temperature Precipitation Wind Pressure Humidity
    00:00 +19°C° 0 mm 0 mps 713 mmHg 38%
    01:00 +19°C° 0 mm 0 mps 713 mmHg 39%
    02:00 +18°C° 0 mm 0 mps 713 mmHg 40%
    03:00 +18°C° 0 mm 0 mps 713 mmHg 40%
    04:00 +17°C° 0 mm 0 mps 713 mmHg 41%
    05:00 +20°C° 0 mm 0 mps 713 mmHg 36%
    06:00 +24°C° 0 mm 1 mps 714 mmHg 31%
    07:00 +25°C° 0 mm 0 mps 715 mmHg 26%
    08:00 +29°C° 0 mm 1 mps 715 mmHg 23%
    09:00 +31°C° 0 mm 2 mps 715 mmHg 21%
    10:00 +34°C° 0 mm 3 mps 715 mmHg 19%
    11:00 +35°C° 0 mm 3 mps 715 mmHg 17%
    12:00 +36°C° 0 mm 3 mps 715 mmHg 16%
    13:00 +37°C° 0 mm 4 mps 715 mmHg 15%
    14:00 +37°C° 0 mm 4 mps 715 mmHg 16%
    15:00 +37°C° 0 mm 4 mps 714 mmHg 16%
    16:00 +37°C° 0 mm 4 mps 714 mmHg 17%
    17:00 +34°C° 0 mm 3 mps 714 mmHg 25%
    18:00 +30°C° 0 mm 2 mps 714 mmHg 34%
    19:00 +27°C° 0 mm 1 mps 714 mmHg 42%
    20:00 +25°C° 0 mm 1 mps 714 mmHg 47%
    21:00 +24°C° 0 mm 1 mps 714 mmHg 52%
    22:00 +21°C° 0 mm 0 mps 714 mmHg 57%
    23:00 +20°C° 0 mm 0 mps 713 mmHg 58%

    Tomorrow, 27 January, Monday

    Time Temperature Precipitation Wind Pressure Humidity
    00:00 +20°C° 0 mm 0 mps 713 mmHg 59%
    01:00 +20°C° 0 mm 0 mps 712 mmHg 60%
    02:00 +20°C° 0 mm 0 mps 712 mmHg 60%
    03:00 +19°C° 0 mm 0 mps 712 mmHg 61%
    04:00 +19°C° 0 mm 0 mps 712 mmHg 62%
    05:00 +23°C° 0 mm 1 mps 712 mmHg 55%
    06:00 +25°C° 0 mm 1 mps 712 mmHg 47%
    07:00 +28°C° 0 mm 1 mps 713 mmHg 40%
    08:00 +30°C° 0 mm 2 mps 713 mmHg 35%
    09:00 +32°C° 0 mm 2 mps 713 mmHg 31%
    10:00 +35°C° 0 mm 3 mps 713 mmHg 26%
    11:00 +36°C° 0 mm 3 mps 713 mmHg 23%
    12:00 +37°C° 0 mm 4 mps 713 mmHg 21%
    13:00 +38°C° 0 mm 4 mps 713 mmHg 18%
    14:00 +38°C° 0 mm 4 mps 713 mmHg 18%
    15:00 +39°C° 0 mm 5 mps 712 mmHg 17%
    16:00 +37°C° 0 mm 5 mps 712 mmHg 17%
    17:00 +34°C° 0 mm 4 mps 712 mmHg 23%
    18:00 +29°C° 0 mm 3 mps 712 mmHg 28%
    19:00 +26°C° 0 mm 2 mps 711 mmHg 34%
    20:00 +25°C° 0 mm 1 mps 712 mmHg 37%
    21:00 +23°C° 0 mm 1 mps 712 mmHg 41%
    22:00 +22°C° 0 mm 1 mps 712 mmHg 45%
    23:00 +22°C° 0 mm 1 mps 711 mmHg 46%

    Day after tomorrow, 28 January, Tuesday

    Time Temperature Precipitation Wind Pressure Humidity
    00:00 +19°C° 0 mm 0 mps 711 mmHg 46%
    01:00 +19°C° 0 mm 0 mps 711 mmHg 47%
    02:00 +19°C° 0 mm 0 mps 711 mmHg 48%
    03:00 +18°C° 0 mm 0 mps 710 mmHg 50%
    04:00 +18°C° 0 mm 0 mps 710 mmHg 51%
    05:00 +20°C° 0 mm 0 mps 711 mmHg 46%
    06:00 +21°C° 0 mm 0 mps 711 mmHg 41%
    07:00 +25°C° 0 mm 1 mps 711 mmHg 36%
    08:00 +27°C° 0 mm 1 mps 711 mmHg 33%
    09:00 +29°C° 0 mm 2 mps 711 mmHg 29%
    10:00 +31°C° 0 mm 3 mps 711 mmHg 25%
    11:00 +33°C° 0 mm 3 mps 711 mmHg 24%
    12:00 +34°C° 0 mm 3 mps 711 mmHg 23%
    13:00 +35°C° 0 mm 4 mps 711 mmHg 21%
    14:00 +34°C° 0 mm 4 mps 711 mmHg 24%
    15:00 +33°C° 0 mm 5 mps 711 mmHg 26%
    16:00 +32°C° 0 mm 5 mps 711 mmHg 28%
    17:00 +29°C° 0 mm 4 mps 711 mmHg 36%
    18:00 +26°C° 0 mm 3 mps 711 mmHg 44%
    19:00 +24°C° 0 mm 1 mps 711 mmHg 51%
    20:00 +22°C° 0 mm 1 mps 711 mmHg 58%
    21:00 +20°C° 0 mm 1 mps 711 mmHg 64%
    22:00 +17°C° 0 mm 0 mps 711 mmHg 71%
    23:00 +17°C° 0 mm 0 mps 711 mmHg 72%

    29 January, Wednesday

    Time Temperature Precipitation Wind Pressure Humidity
    00:00 +16°C° 0 mm 0 mps 711 mmHg 73%
    01:00 +16°C° 0 mm 0 mps 711 mmHg 74%
    02:00 +16°C° 0 mm 0 mps 711 mmHg 76%
    03:00 +15°C° 0 mm 0 mps 711 mmHg 78%
    04:00 +15°C° 0 mm 0 mps 711 mmHg 80%
    05:00 +17°C° 0 mm 0 mps 711 mmHg 71%
    06:00 +21°C° 0 mm 1 mps 712 mmHg 63%
    07:00 +23°C° 0 mm 1 mps 712 mmHg 55%
    08:00 +25°C° 0 mm 1 mps 712 mmHg 48%
    09:00 +27°C° 0 mm 2 mps 712 mmHg 42%
    10:00 +29°C° 0 mm 3 mps 713 mmHg 35%
    11:00 +30°C° 0 mm 3 mps 713 mmHg 31%
    12:00 +33°C° 0 mm 3 mps 713 mmHg 28%
    13:00 +34°C° 0 mm 3 mps 713 mmHg 24%
    14:00 +33°C° 0 mm 4 mps 713 mmHg 26%
    15:00 +33°C° 0 mm 4 mps 713 mmHg 27%
    16:00 +32°C° 0 mm 4 mps 712 mmHg 29%
    17:00 +29°C° 0.1 mm 3 mps 713 mmHg 34%
    18:00 +26°C° 0.1 mm 2 mps 713 mmHg 40%
    19:00 +24°C° 0.1 mm 1 mps 713 mmHg 46%
    20:00 +23°C° 0 mm 1 mps 713 mmHg 50%
    21:00 +21°C° 0 mm 1 mps 713 mmHg 54%
    22:00 +18°C° 0 mm 0 mps 713 mmHg 59%
    23:00 +17°C° 0 mm 0 mps 713 mmHg 59%

    30 January, Thursday

    Time Temperature Precipitation Wind Pressure Humidity
    00:00 +17°C° 0 mm 0 mps 712 mmHg 60%
    01:00 +16°C° 0 mm 0 mps 712 mmHg 60%
    02:00 +16°C° 0 mm 0 mps 712 mmHg 58%
    03:00 +18°C° 0 mm 1 mps 712 mmHg 56%
    04:00 +18°C° 0 mm 1 mps 711 mmHg 53%
    05:00 +21°C° 0 mm 1 mps 712 mmHg 45%
    06:00 +23°C° 0 mm 1 mps 712 mmHg 38%
    07:00 +26°C° 0 mm 1 mps 713 mmHg 30%
    08:00 +28°C° 0 mm 1 mps 713 mmHg 27%
    09:00 +30°C° 0 mm 2 mps 713 mmHg 24%
    10:00 +33°C° 0 mm 3 mps 713 mmHg 21%
    11:00 +34°C° 0 mm 3 mps 713 mmHg 19%
    12:00 +35°C° 0 mm 3 mps 713 mmHg 17%
    13:00 +37°C° 0 mm 3 mps 713 mmHg 15%
    14:00 +36°C° 0 mm 4 mps 713 mmHg 15%
    15:00 +36°C° 0 mm 4 mps 712 mmHg 14%
    16:00 +36°C° 0 mm 4 mps 712 mmHg 14%
    17:00 +33°C° 0 mm 3 mps 712 mmHg 20%
    18:00 +28°C° 0 mm 2 mps 712 mmHg 25%
    19:00 +25°C° 0 mm 1 mps 712 mmHg 31%
    20:00 +23°C° 0 mm 1 mps 712 mmHg 34%
    21:00 +20°C° 0 mm 0 mps 712 mmHg 37%
    22:00 +18°C° 0 mm 0 mps 712 mmHg 40%
    23:00 +18°C° 0 mm 0 mps 712 mmHg 41%

    31 January, Friday

    Time Temperature Precipitation Wind Pressure Humidity
    00:00 +18°C° 0 mm 0 mps 712 mmHg 41%
    01:00 +17°C° 0 mm 0 mps 711 mmHg 42%
    02:00 +17°C° 0 mm 0 mps 711 mmHg 42%
    03:00 +17°C° 0 mm 0 mps 711 mmHg 41%
    04:00 +17°C° 0 mm 0 mps 711 mmHg 41%
    05:00 +19°C° 0 mm 0 mps 712 mmHg 35%
    06:00 +22°C° 0 mm 0 mps 713 mmHg 30%
    07:00 +26°C° 0 mm 1 mps 713 mmHg 24%
    08:00 +29°C° 0 mm 1 mps 713 mmHg 21%
    09:00 +31°C° 0 mm 2 mps 713 mmHg 18%
    10:00 +34°C° 0 mm 2 mps 714 mmHg 15%
    11:00 +35°C° 0 mm 3 mps 713 mmHg 14%
    12:00 +36°C° 0 mm 3 mps 713 mmHg 13%
    13:00 +38°C° 0 mm 3 mps 713 mmHg 11%
    14:00 +37°C° 0 mm 4 mps 713 mmHg 12%
    15:00 +36°C° 0 mm 4 mps 713 mmHg 13%
    16:00 +36°C° 0 mm 5 mps 713 mmHg 14%
    17:00 +31°C° 0 mm 3 mps 713 mmHg 20%
    18:00 +28°C° 0 mm 2 mps 712 mmHg 27%
    19:00 +24°C° 0 mm 1 mps 712 mmHg 33%
    20:00 +23°C° 0 mm 1 mps 712 mmHg 36%
    21:00 +19°C° 0 mm 0 mps 712 mmHg 39%
    22:00 +18°C° 0 mm 0 mps 712 mmHg 43%
    23:00 +18°C° 0 mm 0 mps 712 mmHg 44%
    Show more